Regional Weather Roundup
Issued by NWS

Home | Current Version | Previous Version | Text Only | Print | Product List | Glossary On
Versions: 1 2 3 4 5 6 7 8 9 10 11 12 13 14 15 16 17 18 19 20 21 22 23 24 25 26 27 28 29 30 31 32 33 34 35 36 37 38 39 40 41 42 43 44 45 46 47 48 49 50
000
ASUS44 KLIX 301012
RWRLA
LOUISIANA WEATHER ROUNDUP
NATIONAL WEATHER SERVICE NEW ORLEANS LA
500 AM CDT THU JUL 30 2015

NOTE: "FAIR" INDICATES FEW OR NO CLOUDS BELOW 12,000 FEET WITH NO
      SIGNIFICANT WEATHER AND/OR OBSTRUCTIONS TO VISIBILITY.
      SKY/WX - SKY CONDITION AND SIGNIFICANT WEATHER.
      TMP - AIR TEMPERATURE.    DP   - DEWPOINT TEMPERATURE.
      RH  - RELATIVE HUMIDITY.  PRES - PRESSURE.
      HX  - HEAT INDEX.         WCI  - WIND CHILL INDEX.

*  THESE STATIONS ARE NOT NWS OR FAA STATIONS AND ARE NOT UNDER
   NWS QUALITY CONTROL.

LAZ040-048-061>063-065-066-069-301100-
SOUTHEAST LOUISIANA

CITY           SKY/WX    TMP DP  RH WIND       PRES   REMARKS
N.O. AUDUBON     N/A     79  79 100 MISG        N/A
N.O. INTL ARPT MOCLDY    78  74  87 NW5       29.99S
N.O. LAKEFRONT CLEAR     81  75  82 NW10      29.99S
N.O. DOWNTOWN* FAIR      81  75  83 CALM      30.00R
RESERVE*         N/A     78  75  92 CALM      29.99S
SLIDELL        PTCLDY    75  75 100 CALM      29.98S
BATON ROUGE    PTCLDY    78  75  90 CALM      29.99F
BOOTHVILLE     MOCLDY    81  77  88 CALM      29.98S
BELLE CHASSE   PTCLDY    77  76  96 NW3       29.98F
BOGALUSA*        N/A     76  72  87 CALM      30.00S
GALLIANO*      NOT AVBL
NEW ROADS*     FAIR     N/A N/A N/A CALM      30.00S
GONZALES*      FAIR      77  77 100 CALM      29.98S
HAMMOND*       PTCLDY    75  72  88 CALM      30.01S
HOUMA*         MOCLDY    76  75  96 N3        29.98F
PORT FOURCHON* NOT AVBL

$$

LAZ041-044-053-054-301100-
SOUTHWEST LOUISIANA

CITY           SKY/WX    TMP DP  RH WIND       PRES   REMARKS
LAKE CHARLES   MOCLDY    81  76  84 CALM      30.00R
LAFAYETTE      MOCLDY    81  74  79 CALM      29.99S
PATTERSON      MOCLDY    79  75  89 CALM      30.00F
SALT POINT       N/A     79  76  90 N3        29.97F
NEW IBERIA     CLOUDY    80  76  87 CALM      30.00S
CHENAULT AIRPK MOCLDY    80  77  90 CALM      30.00S

$$

LAZ027-028-301100-
CENTRAL LOUISIANA

CITY           SKY/WX    TMP DP  RH WIND       PRES   REMARKS
FORT POLK      PTCLDY    78  74  88 SW2       29.99S
ALEXANDRIA INT   N/A    N/A N/A N/A MISG      29.99S
ALEXANDRIA     CLEAR     77  72  84 CALM      30.00S

$$

LAZ001-002-301100-
NORTHWEST LOUISIANA

CITY           SKY/WX    TMP DP  RH WIND       PRES   REMARKS
SHREVEPORT     CLEAR     81  72  74 W3        30.01S
BARKSDALE AFB  CLEAR     80  76  88 CALM      30.01S
DTN SHREVEPORT CLEAR     80  74  81 CALM      30.01S

$$

LAZ014-016-301100-
NORTHEAST LOUISIANA

CITY           SKY/WX    TMP DP  RH WIND       PRES   REMARKS
MONROE         CLEAR     80  76  87 CALM      30.01R
TALLULAH       CLEAR     76  74  93 CALM      30.00F

$$




USA.gov is the U.S. government's official web portal to all federal, state and local government web resources and services.